COSMOS 249 DEB *, 4008

Orbit data source: Space-Track

COSMOS 249 DEB *, 4008 is space debris in LEO originally from a launch on Sun, 20 Oct 1968 UTC launched from the Tyuratam Missile And Space Complex (TTMTR). Debris objects in space refer to the collection of defunct objects orbiting the Earth. Examples of debris include non-operational satellites, rocket bodies, and fragments generated from explosions, collisions, or faulty payload assembly.

Loading next visibility...
Identifier
4008, 1968-091BY
Orbit
LEO
Country
Flag of CISCIS
Related business
Manufacturer
Unknown
Mission
Spacecraft
Bus & Motor
Unknown
Mass
Unknown
Launch date (UTC)
1968-10-20 (58 years ago)
Launch vehicle
Unknown
Launch site
Tyuratam Missile And Space Complex (TTMTR)
Object type
Payload
Rocket body
Debris
Shape & HBR
Unknown shape, 0.1 m
Radar Cross Section
Medium (>0.1 m² and <1 m²)

Expand to show TLE details & history
Last TLE update: 7 hours ago

TLE from 7 hours ago
0 COSMOS 249 DEB *
1  4008U 68091BY  26220.16556131  .00000591  00000-0  17723-3 0  9994
2  4008  62.8509  63.4655 0487533 210.7573 146.4060 13.99799032847976
Epoch: 2026-08-08T03:58Z
TLE epoch observation values (Epoch: 2026-08-08T03:58:24.497Z)
Latitude
-0.00005°
Longitude
47.18258°
Altitude
1,196.603 km
Speed
7.105 km/s
True Right ascension
04h 13m 51s
True Declination
0° 00' 00"
Sunlit
Object was in daylight at epoch
Visualization orbit readout
Latitude
Unknown
Longitude
Unknown
Altitude
Unknown
Speed
Unknown
Apparent Right ascension
Unknown
Apparent Declination
Unknown
Sunlit
N/A
Visualization observer readout
Local Sidereal Time
00:48:34
Azimuth
Unknown
Elevation
Unknown
Doppler factor
Unknown
Orbital elements
Apogee altitude
1,247.864 km
Perigee altitude
538.846 km
Semi-major axis
7,271.492 km
Eccentricity
0.04875
Inclination
62.8509°
RAAN
63.4655°
Arg. of periapsis
210.7573°
True anomaly
149.34627°
Mean anomaly
146.406°
Eccentric anomaly
147.89077°
Mean motion
3.50032 °/min
Orbital period
102.85 mins
BSTAR
0.00017723
Loading maneuver chart data...
Computing Atmospheric mass density...

Documentation

Showing up to 5 results
|